Time,TemperatureF,DewpointF,PressureIn,WindDirection,WindDirectionDegrees,WindSpeedMPH,WindSpeedGustMPH,Humidity,HourlyPrecipIn,Conditions,Clouds,dailyrainin,SoftwareType,DateUTC
2013-06-29 00:09:00,66.4,64.0,29.65,WNW,295,0.0,0.0,92,0.00,,CLR,0.00,VWS V14.00,2013-06-29 05:09:00,
2013-06-29 00:19:00,66.6,64.2,29.65,WNW,295,0.0,0.0,92,0.00,,CLR,0.00,VWS V14.00,2013-06-29 05:19:00,
2013-06-29 00:29:00,66.4,64.0,29.65,WNW,295,0.0,0.0,92,0.00,,CLR,0.00,VWS V14.00,2013-06-29 05:29:00,
2013-06-29 00:39:00,66.2,63.8,29.65,WNW,295,0.0,0.0,92,0.00,,SCT120,0.00,VWS V14.00,2013-06-29 05:39:00,
2013-06-29 00:49:00,65.8,63.8,29.65,WNW,295,0.0,0.0,93,0.00,,SCT120,0.00,VWS V14.00,2013-06-29 05:49:00,
2013-06-29 00:59:00,65.8,64.1,29.65,WNW,295,0.0,0.0,94,0.00,,BKN013,0.00,VWS V14.00,2013-06-29 05:59:00,
2013-06-29 01:09:00,65.8,64.4,29.65,WNW,295,0.0,0.0,95,0.00,,BKN013,0.00,VWS V14.00,2013-06-29 06:09:00,
2013-06-29 01:19:00,65.8,64.4,29.65,WNW,295,0.0,0.0,95,0.00,,BKN013,0.00,VWS V14.00,2013-06-29 06:19:00,
2013-06-29 01:29:00,65.8,64.4,29.65,WNW,295,0.0,0.0,95,0.00,,BKN013,0.00,VWS V14.00,2013-06-29 06:29:00,
2013-06-29 01:39:00,65.8,64.4,29.65,WNW,295,0.0,0.0,95,0.00,,BKN015,0.00,VWS V14.00,2013-06-29 06:39:00,
2013-06-29 01:50:00,66.0,64.6,29.62,WNW,295,0.0,0.0,95,0.00,,BKN017,0.00,VWS V14.00,2013-06-29 06:50:00,
2013-06-29 02:00:00,66.0,64.6,29.65,WNW,295,0.0,0.0,95,0.00,,BKN017,0.00,VWS V14.00,2013-06-29 07:00:00,
2013-06-29 02:10:00,66.0,64.6,29.65,WNW,295,0.0,0.0,95,0.00,,OVC015,0.00,VWS V14.00,2013-06-29 07:10:00,
2013-06-29 02:19:00,66.2,64.7,29.65,NNW,327,0.0,0.0,95,0.00,,OVC015,0.00,VWS V14.00,2013-06-29 07:19:00,
2013-06-29 02:29:00,66.2,64.7,29.65,NNW,327,0.0,0.0,95,0.00,,OVC015,0.00,VWS V14.00,2013-06-29 07:29:00,
2013-06-29 02:39:00,66.2,64.7,29.65,NNW,327,0.0,0.0,95,0.00,,OVC021,0.00,VWS V14.00,2013-06-29 07:39:00,
2013-06-29 02:49:00,66.2,64.7,29.65,NNW,327,0.0,0.0,95,0.00,,OVC019,0.00,VWS V14.00,2013-06-29 07:49:00,
2013-06-29 02:59:00,66.4,64.9,29.62,NW,315,0.0,0.0,95,0.00,,OVC019,0.00,VWS V14.00,2013-06-29 07:59:00,
2013-06-29 03:09:00,66.4,64.9,29.62,NNW,332,0.0,6.3,95,0.00,,SCT019,0.00,VWS V14.00,2013-06-29 08:09:00,
2013-06-29 03:19:00,66.2,64.7,29.62,NNW,341,0.0,6.3,95,0.00,,SCT019,0.00,VWS V14.00,2013-06-29 08:19:00,
2013-06-29 03:29:00,66.2,65.0,29.62,NNW,334,0.0,6.3,96,0.00,,SCT019,0.00,VWS V14.00,2013-06-29 08:29:00,
2013-06-29 03:39:00,66.2,65.0,29.62,NW,322,0.0,6.3,96,0.00,,BKN023,0.00,VWS V14.00,2013-06-29 08:39:00,
2013-06-29 03:49:00,66.2,65.0,29.62,NW,322,0.0,0.0,96,0.00,,BKN025,0.00,VWS V14.00,2013-06-29 08:49:00,
2013-06-29 03:59:00,66.2,65.0,29.62,NW,324,0.0,0.0,96,0.00,,BKN025,0.00,VWS V14.00,2013-06-29 08:59:00,
2013-06-29 04:09:00,66.4,64.9,29.62,NNW,345,0.0,6.3,95,0.00,,BKN025,0.00,VWS V14.00,2013-06-29 09:09:00,
2013-06-29 04:19:00,66.2,64.7,29.62,North,358,0.0,0.0,95,0.00,,BKN025,0.00,VWS V14.00,2013-06-29 09:19:00,
2013-06-29 04:29:00,66.0,64.8,29.65,North,358,0.0,0.0,96,0.00,,BKN025,0.00,VWS V14.00,2013-06-29 09:29:00,
2013-06-29 04:39:00,65.8,64.7,29.65,North,358,0.0,0.0,96,0.00,,SCT025,0.00,VWS V14.00,2013-06-29 09:39:00,
2013-06-29 04:49:00,65.7,64.5,29.65,North,358,0.0,0.0,96,0.00,,BKN025,0.00,VWS V14.00,2013-06-29 09:49:00,
2013-06-29 04:59:00,65.5,64.3,29.65,North,358,0.0,0.0,96,0.00,,BKN025,0.00,VWS V14.00,2013-06-29 09:59:00,
2013-06-29 05:09:00,65.5,64.3,29.65,NNW,346,0.0,0.0,96,0.00,,OVC025,0.00,VWS V14.00,2013-06-29 10:09:00,
2013-06-29 05:19:00,65.3,64.1,29.65,NNW,342,0.0,0.0,96,0.00,,OVC025,0.00,VWS V14.00,2013-06-29 10:19:00,
2013-06-29 05:29:00,65.3,63.8,29.65,NNW,342,0.0,0.0,95,0.00,,OVC025,0.00,VWS V14.00,2013-06-29 10:29:00,
2013-06-29 05:39:00,65.1,63.7,29.65,North,360,0.0,0.0,95,0.00,,OVC010,0.00,VWS V14.00,2013-06-29 10:39:00,
2013-06-29 05:50:00,65.1,63.7,29.65,North,352,0.0,5.4,95,0.00,,OVC032,0.00,VWS V14.00,2013-06-29 10:50:00,
2013-06-29 06:00:00,65.1,63.7,29.65,WNW,296,0.0,0.0,95,0.00,,BKN120,0.00,VWS V14.00,2013-06-29 11:00:00,
2013-06-29 06:09:00,65.1,63.7,29.65,North,355,0.0,0.0,95,0.00,,BKN120,0.00,VWS V14.00,2013-06-29 11:09:00,
2013-06-29 06:19:00,65.3,63.8,29.65,NNW,342,0.0,6.3,95,0.00,,BKN120,0.00,VWS V14.00,2013-06-29 11:19:00,
2013-06-29 06:29:00,65.5,64.0,29.65,NNW,345,0.0,0.0,95,0.00,,BKN120,0.00,VWS V14.00,2013-06-29 11:29:00,
2013-06-29 06:39:00,65.5,63.7,29.65,ENE,59,0.0,8.1,94,0.00,,BKN075,0.00,VWS V14.00,2013-06-29 11:39:00,
2013-06-29 06:49:00,65.5,63.7,29.65,North,349,0.0,14.3,94,0.00,,,0.00,VWS V14.00,2013-06-29 11:49:00,
2013-06-29 06:59:00,65.5,63.4,29.65,NW,315,0.0,4.5,93,0.00,,,0.00,VWS V14.00,2013-06-29 11:59:00,
2013-06-29 07:09:00,65.7,63.6,29.65,NW,315,0.0,5.4,93,0.00,,OVC075,0.00,VWS V14.00,2013-06-29 12:09:00,
2013-06-29 07:19:00,65.8,63.5,29.65,NW,315,0.0,0.0,92,0.00,,OVC075,0.00,VWS V14.00,2013-06-29 12:19:00,
2013-06-29 07:29:00,65.8,63.5,29.65,NNW,329,0.0,5.4,92,0.00,,OVC075,0.00,VWS V14.00,2013-06-29 12:29:00,
2013-06-29 07:39:00,66.0,63.6,29.65,NNW,329,0.0,0.0,92,0.00,,OVC080,0.00,VWS V14.00,2013-06-29 12:39:00,
2013-06-29 07:49:00,66.0,63.6,29.65,NNW,329,4.5,5.4,92,0.00,,BKN070,0.00,VWS V14.00,2013-06-29 12:49:00,
2013-06-29 07:59:00,66.2,63.8,29.65,NNW,329,0.0,5.4,92,0.00,,BKN070,0.00,VWS V14.00,2013-06-29 12:59:00,
2013-06-29 08:09:00,66.4,64.0,29.65,North,3,0.0,8.1,92,0.00,,OVC018,0.00,VWS V14.00,2013-06-29 13:09:00,
2013-06-29 08:19:00,66.6,64.2,29.65,North,2,0.0,0.0,92,0.00,,OVC018,0.00,VWS V14.00,2013-06-29 13:19:00,
2013-06-29 08:29:00,66.7,64.0,29.65,North,3,0.0,0.0,91,0.00,,OVC018,0.00,VWS V14.00,2013-06-29 13:29:00,
2013-06-29 08:39:00,66.9,64.2,29.65,NNW,348,0.0,6.3,91,0.00,,-RA,0.00,VWS V14.00,2013-06-29 13:39:00,
2013-06-29 08:50:00,66.9,64.2,29.65,NNW,348,0.0,0.0,91,0.00,,BKN021,0.00,VWS V14.00,2013-06-29 13:50:00,
2013-06-29 09:00:00,66.9,63.9,29.65,NNW,338,6.3,7.2,90,0.00,,BKN021,0.00,VWS V14.00,2013-06-29 14:00:00,
2013-06-29 09:09:00,67.1,64.1,29.65,NNW,338,0.0,6.3,90,0.00,,BKN021,0.00,VWS V14.00,2013-06-29 14:09:00,
2013-06-29 09:19:00,67.3,64.2,29.65,NNW,337,0.0,5.4,90,0.00,,BKN021,0.00,VWS V14.00,2013-06-29 14:19:00,
2013-06-29 09:29:00,67.5,64.4,29.65,NNW,335,0.0,6.3,90,0.00,,BKN021,0.00,VWS V14.00,2013-06-29 14:29:00,
2013-06-29 09:39:00,67.5,64.1,29.65,NW,326,0.0,4.5,89,0.00,,OVC014,0.00,VWS V14.00,2013-06-29 14:39:00,
2013-06-29 09:49:00,67.3,64.2,29.65,NW,326,0.0,0.0,90,0.00,,OVC017,0.00,VWS V14.00,2013-06-29 14:49:00,
2013-06-29 09:59:00,67.3,64.6,29.65,NNE,25,0.0,5.4,91,0.00,,OVC017,0.00,VWS V14.00,2013-06-29 14:59:00,
2013-06-29 10:09:00,67.3,64.2,29.65,North,354,0.0,0.0,90,0.00,,OVC060,0.00,VWS V14.00,2013-06-29 15:09:00,
2013-06-29 10:19:00,67.3,64.2,29.65,NW,322,4.5,6.3,90,0.00,,OVC060,0.00,VWS V14.00,2013-06-29 15:19:00,
2013-06-29 10:29:00,67.6,64.6,29.65,NNW,334,0.0,7.2,90,0.00,,OVC060,0.00,VWS V14.00,2013-06-29 15:29:00,
2013-06-29 10:39:00,68.0,64.3,29.65,NW,316,0.0,7.2,88,0.00,,BKN032,0.00,VWS V14.00,2013-06-29 15:39:00,
2013-06-29 10:49:00,68.2,64.2,29.65,WNW,293,6.3,8.1,87,0.00,,OVC019,0.00,VWS V14.00,2013-06-29 15:49:00,
2013-06-29 10:59:00,68.5,64.5,29.65,ENE,67,0.0,9.8,87,0.00,,OVC019,0.00,VWS V14.00,2013-06-29 15:59:00,
2013-06-29 11:09:00,69.3,64.9,29.65,NNW,340,0.0,8.9,86,0.00,,OVC020,0.00,VWS V14.00,2013-06-29 16:09:00,
2013-06-29 11:19:00,69.4,64.4,29.65,WNW,299,6.3,12.5,84,0.00,,OVC020,0.00,VWS V14.00,2013-06-29 16:19:00,
2013-06-29 11:29:00,69.3,64.2,29.65,NW,316,4.5,10.7,84,0.00,,BKN021,0.00,VWS V14.00,2013-06-29 16:29:00,
2013-06-29 11:39:00,69.1,64.1,29.65,NNW,347,8.1,8.1,84,0.00,,BKN021,0.00,VWS V14.00,2013-06-29 16:39:00,
2013-06-29 11:50:00,69.6,64.6,29.65,East,81,4.5,8.1,84,0.00,,RA,0.00,VWS V14.00,2013-06-29 16:50:00,
2013-06-29 12:00:00,69.6,64.6,29.65,South,181,0.0,8.1,84,0.00,,OVC026,0.00,VWS V14.00,2013-06-29 17:00:00,
2013-06-29 12:09:00,69.6,64.9,29.65,NE,51,0.0,7.2,85,0.00,,OVC026,0.00,VWS V14.00,2013-06-29 17:09:00,
2013-06-29 12:19:00,69.6,64.9,29.65,ESE,117,5.4,8.9,85,0.00,,OVC026,0.00,VWS V14.00,2013-06-29 17:19:00,
2013-06-29 12:29:00,69.6,65.2,29.65,ENE,70,0.0,8.1,86,0.00,,OVC026,0.00,VWS V14.00,2013-06-29 17:29:00,
2013-06-29 12:39:00,69.8,65.4,29.65,North,353,6.3,8.1,86,0.00,, +RA,0.00,VWS V14.00,2013-06-29 17:39:00,
2013-06-29 12:49:00,69.4,65.4,29.65,East,82,5.4,8.1,87,0.00,,OVC020,0.00,VWS V14.00,2013-06-29 17:49:00,
2013-06-29 12:59:00,68.2,64.8,29.67,North,353,5.4,12.5,89,0.00,,OVC020,0.04,VWS V14.00,2013-06-29 17:59:00,
2013-06-29 13:09:00,67.1,64.7,29.67,ESE,105,0.0,10.7,92,0.43,,RA,0.12,VWS V14.00,2013-06-29 18:09:00,
2013-06-29 13:19:00,66.4,64.6,29.67,NW,316,0.0,7.2,94,0.43,,RA,0.20,VWS V14.00,2013-06-29 18:19:00,
2013-06-29 13:29:00,65.7,64.5,29.67,NW,316,0.0,11.6,96,3.62,,RA,0.71,VWS V14.00,2013-06-29 18:29:00,
2013-06-29 13:39:00,65.1,64.2,29.67,NNW,329,7.2,10.7,97,0.94,,RA,0.87,VWS V14.00,2013-06-29 18:39:00,
2013-06-29 13:49:00,64.9,64.4,29.67,ENE,77,7.2,10.7,98,0.39,,-RA,0.91,VWS V14.00,2013-06-29 18:49:00,
2013-06-29 13:59:00,64.9,64.4,29.67,NNE,27,0.0,7.2,98,0.39,,OVC028,0.91,VWS V14.00,2013-06-29 18:59:00,
2013-06-29 14:09:00,64.9,64.4,29.67,NNE,28,0.0,0.0,98,0.20,,OVC028,0.94,VWS V14.00,2013-06-29 19:09:00,
2013-06-29 14:19:00,64.6,64.0,29.70,NNE,27,0.0,0.0,98,0.20,,OVC028,0.98,VWS V14.00,2013-06-29 19:19:00,
2013-06-29 14:29:00,64.0,63.5,29.70,NW,323,8.1,8.1,98,0.24,,OVC028,1.02,VWS V14.00,2013-06-29 19:29:00,
2013-06-29 14:39:00,63.5,62.9,29.70,WNW,302,0.0,8.1,98,0.24,,RA,1.10,VWS V14.00,2013-06-29 19:39:00,
2013-06-29 14:50:00,63.7,63.1,29.70,NW,324,0.0,5.4,98,1.10,,RA,1.26,VWS V14.00,2013-06-29 19:50:00,
2013-06-29 15:00:00,63.7,63.1,29.70,NNW,331,0.0,9.8,98,1.57,,RA,1.54,VWS V14.00,2013-06-29 20:00:00,
2013-06-29 15:09:00,63.9,63.3,29.70,North,357,4.5,7.2,98,1.18,,OVC029,1.69,VWS V14.00,2013-06-29 20:09:00,
2013-06-29 15:19:00,64.0,63.5,29.70,NNW,344,0.0,7.2,98,1.18,,OVC029,1.69,VWS V14.00,2013-06-29 20:19:00,
2013-06-29 15:29:00,64.4,63.8,29.70,NNW,335,0.0,6.3,98,1.18,,OVC029,1.69,VWS V14.00,2013-06-29 20:29:00,
2013-06-29 15:39:00,64.8,64.2,29.70,NW,323,0.0,5.4,98,1.18,,BKN065,1.69,VWS V14.00,2013-06-29 20:39:00,
2013-06-29 15:49:00,65.3,64.7,29.70,West,270,6.3,7.2,98,1.18,,SCT065,1.69,VWS V14.00,2013-06-29 20:49:00,
2013-06-29 15:59:00,65.8,65.3,29.70,NNW,346,0.0,8.1,98,1.18,,SCT065,1.69,VWS V14.00,2013-06-29 20:59:00,
2013-06-29 16:09:00,66.2,65.6,29.70,NNE,30,5.4,8.1,98,1.18,,BKN080,1.69,VWS V14.00,2013-06-29 21:09:00,
2013-06-29 16:19:00,66.6,66.0,29.70,NW,306,0.0,8.1,98,1.18,,BKN080,1.69,VWS V14.00,2013-06-29 21:19:00,
2013-06-29 16:29:00,66.7,65.6,29.70,WNW,297,0.0,7.2,96,1.18,,BKN080,1.69,VWS V14.00,2013-06-29 21:29:00,
2013-06-29 16:39:00,67.1,65.6,29.70,North,360,6.3,8.1,95,1.18,,BKN080,1.69,VWS V14.00,2013-06-29 21:39:00,
2013-06-29 16:49:00,67.3,65.2,29.70,NNW,327,5.4,10.7,93,1.18,,SCT080,1.69,VWS V14.00,2013-06-29 21:49:00,
2013-06-29 16:59:00,67.5,64.4,29.70,North,1,5.4,12.5,90,1.18,,SCT080,1.69,VWS V14.00,2013-06-29 21:59:00,
2013-06-29 17:08:00,67.5,64.4,29.70,North,11,4.5,8.1,90,1.18,,CLR,1.69,VWS V14.00,2013-06-29 22:08:00,
2013-06-29 17:18:00,67.5,64.1,29.70,NNE,25,0.0,8.9,89,0.00,,CLR,1.69,VWS V14.00,2013-06-29 22:18:00,
2013-06-29 17:28:00,67.6,64.3,29.70,North,6,0.0,4.5,89,0.00,,CLR,1.69,VWS V14.00,2013-06-29 22:28:00,
2013-06-29 17:38:00,67.8,64.1,29.70,WNW,297,0.0,6.3,88,0.00,,CLR,1.69,VWS V14.00,2013-06-29 22:38:00,
2013-06-29 17:50:00,68.0,63.7,29.70,North,355,0.0,9.8,86,0.00,,CLR,1.69,VWS V14.00,2013-06-29 22:50:00,
2013-06-29 17:59:00,68.0,62.3,29.70,WSW,237,0.0,11.6,82,0.00,,CLR,1.69,VWS V14.00,2013-06-29 22:59:00,
2013-06-29 18:09:00,67.8,61.8,29.70,NW,326,5.4,8.1,81,0.00,,CLR,1.69,VWS V14.00,2013-06-29 23:09:00,
2013-06-29 18:19:00,67.6,61.6,29.70,North,1,0.0,9.8,81,0.00,,CLR,1.69,VWS V14.00,2013-06-29 23:19:00,
2013-06-29 18:29:00,67.6,61.6,29.73,NW,318,4.5,11.6,81,0.00,,SCT095,1.69,VWS V14.00,2013-06-29 23:29:00,
2013-06-29 18:39:00,67.6,61.6,29.73,NNW,332,5.4,8.1,81,0.00,,SCT095,1.69,VWS V14.00,2013-06-29 23:39:00,
2013-06-29 18:49:00,67.5,61.1,29.73,North,6,0.0,11.6,80,0.00,,SCT043,1.69,VWS V14.00,2013-06-29 23:49:00,
2013-06-29 18:59:00,67.5,60.7,29.73,NNW,334,0.0,9.8,79,0.00,,SCT043,1.69,VWS V14.00,2013-06-29 23:59:00,
2013-06-29 19:09:00,67.3,60.5,29.73,North,351,0.0,9.8,79,0.00,,CLR,1.69,VWS V14.00,2013-06-30 00:09:00,
2013-06-29 19:19:00,67.3,60.9,29.73,North,352,4.5,8.1,80,0.00,,CLR,1.69,VWS V14.00,2013-06-30 00:19:00,
2013-06-29 19:29:00,67.1,60.7,29.76,North,360,0.0,10.7,80,0.00,,CLR,1.69,VWS V14.00,2013-06-30 00:29:00,
2013-06-29 19:39:00,67.1,60.4,29.76,NNW,346,5.4,10.7,79,0.00,,SCT048,1.69,VWS V14.00,2013-06-30 00:39:00,
2013-06-29 19:49:00,66.9,59.8,29.76,NNE,12,7.2,9.8,78,0.00,,SCT070,1.69,VWS V14.00,2013-06-30 00:49:00,
2013-06-29 19:59:00,66.7,59.3,29.76,North,357,0.0,14.3,77,0.00,,CLR,1.69,VWS V14.00,2013-06-30 00:59:00,
2013-06-29 20:09:00,66.7,58.9,29.76,NNW,335,0.0,12.5,76,0.00,,CLR,1.69,VWS V14.00,2013-06-30 01:09:00,
2013-06-29 20:19:00,66.4,58.6,29.76,NNW,347,0.0,8.1,76,0.00,,CLR,1.69,VWS V14.00,2013-06-30 01:19:00,
2013-06-29 20:28:00,66.2,58.4,29.76,North,358,5.4,7.2,76,0.00,,CLR,1.69,VWS V14.00,2013-06-30 01:28:00,
2013-06-29 20:38:00,65.8,58.1,29.76,North,5,0.0,7.2,76,0.00,,CLR,1.69,VWS V14.00,2013-06-30 01:38:00,
2013-06-29 20:50:00,65.7,58.3,29.76,NNW,332,6.3,7.2,77,0.00,,BKN085,1.69,VWS V14.00,2013-06-30 01:50:00,
2013-06-29 21:00:00,65.3,57.9,29.76,WNW,290,0.0,8.1,77,0.00,,BKN085,1.69,VWS V14.00,2013-06-30 02:00:00,
2013-06-29 21:09:00,65.3,57.9,29.76,North,11,6.3,6.3,77,0.00,,OVC085,1.69,VWS V14.00,2013-06-30 02:09:00,
2013-06-29 21:19:00,65.5,58.1,29.76,NW,304,0.0,6.3,77,0.00,,OVC085,1.69,VWS V14.00,2013-06-30 02:19:00,
2013-06-29 21:30:00,65.5,58.1,29.79,NNW,344,0.0,7.2,77,0.00,,OVC085,1.69,VWS V14.00,2013-06-30 02:30:00,
2013-06-29 21:39:00,65.5,57.4,29.79,NW,324,9.8,11.6,75,0.00,,OVC085,1.69,VWS V14.00,2013-06-30 02:39:00,
2013-06-29 21:49:00,65.5,57.4,29.79,North,10,0.0,9.8,75,0.00,,OVC085,1.69,VWS V14.00,2013-06-30 02:49:00,
2013-06-29 21:59:00,65.3,56.8,29.79,North,8,5.4,8.1,74,0.00,,BKN085,1.69,VWS V14.00,2013-06-30 02:59:00,
2013-06-29 22:09:00,65.1,56.6,29.79,NW,321,8.1,12.5,74,0.00,,BKN085,1.69,VWS V14.00,2013-06-30 03:09:00,
2013-06-29 22:19:00,64.8,56.7,29.79,NNW,341,0.0,8.1,75,0.00,,BKN085,1.69,VWS V14.00,2013-06-30 03:19:00,
2013-06-29 22:29:00,64.6,56.8,29.79,NNW,328,0.0,8.1,76,0.00,,BKN085,1.69,VWS V14.00,2013-06-30 03:29:00,
2013-06-29 22:39:00,64.2,56.9,29.79,NNW,334,4.5,4.5,77,0.00,,SCT085,1.69,VWS V14.00,2013-06-30 03:39:00,
2013-06-29 22:49:00,64.0,57.0,29.79,NNW,329,0.0,5.4,78,0.00,,CLR,1.69,VWS V14.00,2013-06-30 03:49:00,
2013-06-29 22:59:00,64.0,57.4,29.79,NW,321,0.0,6.3,79,0.00,,CLR,1.69,VWS V14.00,2013-06-30 03:59:00,
2013-06-29 23:09:00,63.9,57.2,29.79,NW,313,4.5,5.4,79,0.00,,CLR,1.69,VWS V14.00,2013-06-30 04:09:00,
2013-06-29 23:19:00,63.9,57.2,29.79,NW,304,7.2,8.1,79,0.00,,CLR,1.69,VWS V14.00,2013-06-30 04:19:00,
2013-06-29 23:29:00,63.5,57.2,29.79,NNW,343,0.0,7.2,80,0.00,,CLR,1.69,VWS V14.00,2013-06-30 04:29:00,
2013-06-29 23:39:00,63.3,57.0,29.79,WSW,255,7.2,7.2,80,0.00,,CLR,1.69,VWS V14.00,2013-06-30 04:39:00,
2013-06-29 23:50:00,63.1,57.2,29.79,NW,314,5.4,8.1,81,0.00,,CLR,1.69,VWS V14.00,2013-06-30 04:50:00,